Home   Weather   Burnley   Past weeks
Flag for United Kingdom

Past Weather in Burnley, England, United Kingdom — Yesterday and Last 2 Weeks

Now
58 °F

Cool.


Feels Like: 55 °F
Forecast: 59 / 44 °F
Wind: 14 mph from Northwest

Location: Bingley

Current Time: May 24, 2019 at 6:12:19 pm

Latest Report: May 24, 2019 at 5:00 pm


Visibility: 31 mi

Pressure: 30.03 "Hg

Humidity: 69%

Dew Point: 48 °F

Location of BurnleyLocation

Past Weather in Burnley — Graph

°F

Burnley Temperature Yesterday

Maximum temperature yesterday: 62 °F (at 3:00 pm)
Minimum temperature yesterday: 45 °F (at 1:00 am)
Average temperature yesterday: 53 °F

High & Low Weather Summary for the Past Weeks

 TemperatureHumidityPressure
High67 °F (May 14, 5:00 pm)100% (May 11, 3:00 am)30.69 "Hg (May 11, 3:00 am)
Low36 °F (May 12, 5:00 am)31% (May 12, 4:00 pm)29.60 "Hg (May 9, 5:00 pm)
Average51 °F74%30.12 "Hg
* Reported May 9 5:00 pm — May 24 5:00 pm, Burnley. Weather by CustomWeather, © 2019

Note: Actual official high and low records may vary slightly from our data, if they occured in-between our weather recording intervals... More about our weather records

Advertising

Burnley Weather History for the Previous 24 Hours

Scroll right to see more
 ConditionsComfort  
Time TempWeatherWind HumidityBarometerVisibility
5:00 pm
Fri, May 24
58 °FCool.14 mph69%30.03 "Hg31 mi
4:00 pm59 °FCool.12 mph65%30.03 "Hg17 mi
3:00 pm59 °FCool.13 mph69%30.03 "Hg25 mi
2:00 pm60 °FCool.13 mph67%30.01 "Hg14 mi
1:00 pm59 °FCool.12 mph65%30.02 "Hg17 mi
12:00 pm59 °FCool.9 mph64%30.02 "Hg19 mi
11:00 am58 °FCool.14 mph65%30.01 "Hg19 mi
10:00 am57 °FCool.10 mph70%30.01 "Hg19 mi
9:00 am55 °FCool.9 mph70%30.00 "Hg25 mi
8:00 am53 °FCool.9 mph69%30.00 "Hg25 mi
7:00 am50 °FCool.8 mph69%29.99 "Hg28 mi
6:00 am47 °FCool.7 mph68%30.00 "Hg31 mi
5:00 am47 °FCool.7 mph72%30.00 "Hg31 mi
4:00 am47 °FCool.6 mph82%30.00 "Hg28 mi
3:00 am47 °FCool.8 mph85%29.99 "Hg22 mi
2:00 am47 °FFog.6 mph97%29.99 "Hg4 mi
1:00 am48 °FCool.6 mph92%29.99 "Hg7 mi
12:00 am49 °FCool.6 mph87%30.00 "Hg10 mi
11:00 pm
Thu, May 23
50 °FCool.7 mph84%30.00 "Hg14 mi
10:00 pm51 °FCool.6 mph80%30.00 "Hg15 mi
9:00 pm54 °FCool.6 mph74%29.99 "Hg25 mi
8:00 pm56 °FCool.6 mph69%29.98 "Hg19 mi
7:00 pm57 °FCool.7 mph70%29.97 "Hg19 mi
6:00 pm58 °FCool.8 mph65%29.97 "Hg28 mi
Weather by CustomWeather, © 2019

See weather overview